Regional Weather Roundup
Issued by NWS Sterling, VA

Home | Current Version | Previous Version | Text Only | Print | Product List | Glossary Off
Versions: 1 2 3 4 5 6 7 8 9 10 11 12 13 14 15 16 17 18 19 20 21 22 23 24 25 26 27 28 29 30 31 32 33 34 35 36 37 38 39 40 41 42 43 44 45 46 47 48 49 50

821
ASUS41 KLWX 010011
RWRLWX

REGIONAL WEATHER ROUNDUP
NATIONAL WEATHER SERVICE BALTIMORE MD/WASHINGTON DC
800 PM EDT FRI SEP 30 2016

Note: "FAIR" indicates few or no clouds below 12,000 feet
with no significant weather and/or obstructions to visibility.
 TC=TEMPERATURE CELSIUS

 * =Non NWS site. Station does not report precipitation (e.g. rain,
    snow, etc.), thunder, or fog.

DCZ001-MDZ009-015-VAZ040>042-051-053>054-010100-
WASHINGTON METRO

CITY           SKY/WX    TMP DP  RH WIND       PRES   REMARKS
WASHINGTON NAT DRIZZLE   66  65  96 NE14      30.12F FOG
DULLES         LGT RAIN  63  61  93 NE12      30.12S FOG
ANDREWS AFB    CLOUDY    64  63  95 NE12G20   30.11S
FT BELVOIR     CLOUDY    64  63  94 VRB3      30.09F
QUANTICO       CLOUDY    67  64  90 NE16G22   30.09F
LEESBURG*      CLOUDY    61  61 100 NE6       30.14S FOG
MANASSAS*      CLOUDY    64  63  94 NE8       30.10F FOG
GAITHERSBURG*  CLOUDY    61  57  88 E6        30.17S

$$

MDZ006>007-011-014-010100-
BALTIMORE METRO

CITY           SKY/WX    TMP DP  RH WIND       PRES   REMARKS
BWI AIRPORT    DRIZZLE   64  61  90 NE17      30.15S
MD SCIENCE CTR   N/A     65  59  81 MISG      30.16S
MARTIN STATE   CLOUDY    64  63  94 NE7G20    30.17S
ANNAPOLIS      CLOUDY    67  63  87 E9        30.13F
FORT MEADE*    CLOUDY    63  61  94 E10       30.16S

$$

MDZ012-015-019>023-010100-
MARYLAND EASTERN SHORE

CITY           SKY/WX    TMP DP  RH WIND       PRES   REMARKS
OCEAN CITY     CLOUDY    69  69 100 NE12      30.11R
SALISBURY      CLOUDY    68  67  96 NE13      30.11S FOG
EASTON*        CLOUDY    66  63  88 E14G21    30.16S

$$

MDZ017>025-010100-
SOUTHERN MARYLAND

CITY           SKY/WX    TMP DP  RH WIND       PRES   REMARKS
PATUXENT RIVER LGT RAIN  68  65  90 E13G20    30.09F
ST INIGOES     CLOUDY    69  67  93 NE12G20   30.08S
LEONARDTOWN*   CLOUDY    64  63  94 E8        30.11F

$$

MDZ003>005-010100-
NORTH CENTRAL MARYLAND

CITY           SKY/WX    TMP DP  RH WIND       PRES   REMARKS
FREDERICK*     CLOUDY    61  61 100 N9        30.18F FOG
HAGERSTOWN APT CLOUDY    61  56  83 NE13      30.16F

$$

MDZ501>502-010100-
WESTERN MARYLAND

CITY           SKY/WX    TMP DP  RH WIND       PRES   REMARKS
OAKLAND*       FOG       50  50 100 E15G23    30.13F VSB 3/4
CUMBERLAND*    CLOUDY    57  57 100 NW3       30.19F

$$

VAZ025>031-010100-
SHENANDOAH VALLEY

CITY           SKY/WX    TMP DP  RH WIND       PRES   REMARKS
WINCHESTER*    DRIZZLE   59  57  94 CALM      30.15R
FRONT ROYAL*   CLOUDY    57  57 100 N6        30.12S
LURAY*         DRIZZLE  N/A N/A N/A NE9       30.12F
NEW MARKET*    CLOUDY   N/A N/A N/A N10       30.12F
STAUNTON*      HVY RAIN  57  57  97 N3        30.12S
WAYNESBORO*    CLOUDY    58  57  96 N5        30.11R

$$

WVZ021-048>050-054>055-010100-
EASTERN WEST VIRGINIA PANHANDLE

CITY           SKY/WX    TMP DP  RH WIND       PRES   REMARKS
MARTINSBURG    CLOUDY    57  56  96 N10       30.13F
PETERSBURG*    CLOUDY    58  57  94 N5        30.15S

$$

VAZ036>039-050-010100-
CENTRAL FOOTHILLS

CITY           SKY/WX    TMP DP  RH WIND       PRES   REMARKS
CHARLOTTESVILL CLOUDY    63  60  90 NE14      30.08F FOG
CULPEPER*      DRIZZLE   64  64  99 N7        30.10F
ORANGE*        DRIZZLE   63  63 100 N6        30.10F
GORDONSVILLE*  CLOUDY    63  63 100 NE7       30.08F FOG
WARRENTON*     CLOUDY    64  60  86 NE9       30.10S FOG

$$

VAZ055>057-010100-
NORTH AND CENTRAL PIEDMONT

CITY           SKY/WX    TMP DP  RH WIND       PRES   REMARKS
FREDERICKSBRG* CLOUDY    67  67 100 NE5       30.07S
STAFFORD*      CLOUDY    65  65 100 NE9       30.12F

$$

NCZ024-NYZ072-PAZ021-071-VAZ022-071-010100-
OTHER REGIONAL OBSERVATIONS

CITY           SKY/WX    TMP DP  RH WIND       PRES   REMARKS
NEW YORK CITY  CLOUDY    57  55  93 E9        30.28S FOG
PHILADELPHIA   CLOUDY    61  58  90 NE14G23   30.21R
PITTSBURGH     MOCLDY    58  57  97 E13       30.10R
ROANOKE        CLOUDY    65  63  93 NE8       30.06R
RICHMOND       LGT RAIN  70  69  97 NE8       30.03F
RALEIGH        MOCLDY    75  72  90 SE6       29.99S

$$

ANZ530>537-010100-
MARINE OBSERVATIONS

STATION/POSITION TIME  TEMP    WIND        PRES
                       AIR SEA DIR/SP/G
                 (UTC) (F)     (DEG/KT/KT) (MB)
THOMAS PT LIGHT  0000   66 71   60/ 15/ 16 1021.4F
BALT KEY BRIDGE  2348           50/ 12/ 14 1021.1S
COVE POINT       2348           90/ 17/ 22 1019.6F
LEWISETTA        2348      72   80/ 17/ 21 1018.0R
SOLOMONS ISLAND  2348           70/ 14/ 19   N/A
PINEY POINT      2348           90/ 13/ 18   N/A

$$





USA.gov is the U.S. government's official web portal to all federal, state and local government web resources and services.